OBJECT A, 44310

Orbit data source: Space-Track

You're viewing an uncataloged RSO

Recently launched and/or uncataloged RSOs may have evolving metadata. Metadata may include the following, but is not limited to: Owner, Manufacturer, Bus, Motor, and Mission.

OBJECT A, 44310 is a Chinese satellite in LEO that was launched on Wed, 05 Jun 2019 UTC via a CHANG ZHENG 11 launch vehicle from the Yellow Sea Launch Area, China (YSLA). Unknown objects in Earth's orbit typically refer to objects detected orbiting the Earth but have not yet been identified or cataloged. These objects could be anything from previously untracked satellites, spent rocket stages, debris from satellite collisions, or even natural meteoroids temporarily captured by Earth's gravity.

Loading next visibility...
Identifier
44310, 2019-032A
Orbit
LEO
Country
Flag of CNCN / PRC
Related business
None
Manufacturer
Unknown
Mission
Operational Commercial Technology
Bus & Motor
Unknown
Mass
Unknown
Launch date (UTC)
2019-06-05 (7 years ago)
Launch vehicle
CHANG ZHENG 11
Launch site
Yellow Sea Launch Area, China (YSLA)
Object type
Unknown
Shape & HBR
Box, 0.9 m
Radar Cross Section
1.500 m², Medium (>0.1 m² and < 1m²)

Expand to show TLE details & history
Last TLE update: 6 hours ago

TLE from 6 hours ago
0 OBJECT A
1 44310U 19032A   26258.29686581  .00006959  00000-0  24536-3 0  9997
2 44310  44.9697 283.4567 0009637  49.1043 311.0674 15.29947478400983
Epoch: 2026-09-15T07:07Z
TLE epoch observation values (Epoch: 2026-09-15T07:07:29.205Z)
Latitude
-0.00003°
Longitude
-177.67986°
Altitude
471.629 km
Speed
7.634 km/s
True Right ascension
18h 53m 49s
True Declination
0° 00' 00"
Sunlit
Object was in daylight at epoch
Visualization orbit readout
Latitude
Unknown
Longitude
Unknown
Altitude
Unknown
Speed
Unknown
Apparent Right ascension
Unknown
Apparent Declination
Unknown
Sunlit
N/A
Visualization observer readout
Local Sidereal Time
06:13:28
Azimuth
Unknown
Elevation
Unknown
Doppler factor
Unknown
Orbital elements
Apogee altitude
484.192 km
Perigee altitude
470.978 km
Semi-major axis
6,855.722 km
Eccentricity
0.00096
Inclination
44.9697°
RAAN
283.4567°
Arg. of periapsis
49.1043°
True anomaly
310.98408°
Mean anomaly
311.0674°
Eccentric anomaly
311.02574°
Mean motion
3.82352 °/min
Orbital period
94.15 mins
BSTAR
0.00024536
Loading maneuver chart data...
Computing Atmospheric mass density...
Loading historical data...
Loading historical data...
Loading historical data...
Loading historical data...
Loading historical data...
Loading historical data...
Loading historical data...

Documentation

Showing up to 5 results
|